Flag for Japan Weather past 2 weeks in Sapporo, Japan

Now
35 °F

Chilly.


Feels Like: 35 °F
Forecast: 32 / 50 °F
Wind: 2 mph from Northwest

Location: Sapporo

Current Time: Apr 2, 2015 at 2:09:33 AM

Latest Report: Apr 2, 2015 at 1:00 AM


Visibility: N/A

Pressure: 30.03 "Hg

Humidity: 70%

Dew point: 27 °F

Location of SapporoLocation

Historic Weather in Sapporo — Graph

°F

Sapporo temperature yesterday

Maximum temperature yesterday: 46 °F (at 12:00 PM)
Minimum temperature yesterday: 37 °F (at 11:00 PM)
Average temperature yesterday: 42 °F

Past Weeks' High & Low Weather Summary

 TemperatureHumidityPressure
High60 °F (Mar 28, 3:00 PM)91% (Apr 1, 12:00 AM)30.32 "Hg (Apr 1, 12:00 AM)
Low31 °F (Mar 24, 4:00 AM)29% (Mar 23, 10:00 AM)29.62 "Hg (Mar 24, 6:00 AM)
Average42 °F61%29.94 "Hg
* Reported Midnight between Mar 17 and Mar 18 — Midnight between Apr 1 and Apr 2, Sapporo, Weather by CustomWeather, © 2015

Note: Actual official high and low records may vary slightly from our data, if they occured in-between our weather recording intervals... More about our weather records

Advertising

Sapporo weather history for previous 24 hours

 ConditionsComfort  
Time TempWeatherWind HumidityBarometerVisibility
12:00 AM
Thu, Apr 2
37 °FChilly.1 mph67%30.02 "HgN/A
11:00 PM
Wed, Apr 1
37 °FChilly.3 mph63%30.01 "HgN/A
10:00 PM38 °FChilly.3 mph62%30.00 "HgN/A
9:00 PM39 °FPassing clouds.5 mph59%30.01 "Hg12 mi
8:00 PM39 °FChilly.3 mph58%30.00 "HgN/A
7:00 PM40 °FQuite cool.8 mph56%29.98 "HgN/A
6:00 PM41 °FPassing clouds.12 mph53%29.97 "Hg12 mi
5:00 PM42 °FQuite cool.9 mph49%29.95 "HgN/A
4:00 PM43 °FQuite cool.12 mph46%29.95 "HgN/A
3:00 PM44 °FScattered clouds.12 mph47%29.95 "Hg12 mi
2:00 PM45 °FCool.13 mph50%29.96 "HgN/A
1:00 PM46 °FCool.15 mph55%29.98 "HgN/A
12:00 PM46 °FOvercast.16 mph59%29.99 "Hg6 mi
11:00 AM46 °FCool.12 mph62%29.99 "HgN/A
10:00 AM45 °FCool.3 mph67%30.00 "HgN/A
9:00 AM43 °FOvercast.2 mph74%30.01 "Hg9 mi
8:00 AM41 °FQuite cool.2 mph77%29.99 "HgN/A
7:00 AM40 °FQuite cool.9 mph85%29.97 "HgN/A
6:00 AM42 °FOvercast.6 mph82%29.95 "Hg6 mi
5:00 AM43 °FQuite cool.8 mph80%29.93 "HgN/A
4:00 AM42 °FQuite cool.3 mph85%29.92 "HgN/A
3:00 AM40 °FOvercast.2 mph88%29.92 "Hg6 mi
2:00 AM40 °FQuite cool.6 mph89%29.90 "HgN/A
Weather by CustomWeather, © 2015

See weather overviewHow to use our weather pages